sat.trackr.live / text

‹ back to catalog

DRISHTI

NORAD 69010 · 2026-100AG

PAYLOAD ACTIVE UNKNOWN

§ Identity

Operator
Country
IND
Launch date
2026-05-03
Launch site
AFWTR
Launch vehicle
Mass (kg)
RCS (m²)

External: N2YO · Heavens-Above · Gunter

§ Orbital elements

Epoch: 2026-09-19T10:49:13.965312Z

Period
94.68 min
Inclination
97.3905°
Eccentricity
0.0006878
Mean motion
15.20835451 rev/d
Perigee alt
498.6 km
Apogee alt
508.1 km
Semi-major
6,881.5 km
B*
8.1678e-5
RAAN
158.5387°
Arg perigee
65.9837°
Mean anomaly
294.2118°
Rev number
2,113

§ Raw data

DRISHTI1 69010U 26100AG  26262.45085608  .00001735  00000+0  81678-4 0  99982 69010  97.3905 158.5387 0006878  65.9837 294.2118 15.20835451 21133

JSON: /api/v1/satellites/69010 · /tle

For live sub-satellite position, see the globe view (requires WebGL).

§ Visibility from observer

Set your observer location to see the next 7 days of passes ≥ 10°. The values pass through the URL so the page stays shareable.

No JS? Fill the form by hand. The geolocation button needs JavaScript.